shoulder
new_line
new_line
first
second
third
Al di la della Luna; Beyond the Moon; Astrophotography; Astrofotografia; Danilo Pivato
 
 
 
 
         
       
2019

Orbital Elements

Epoch 2019 Mar. 18.0 TT = JDT 2458560.5  
T 2019 Mar. 7.75667 TT                                                      Rudenko  
q   5.7668219            (2000.0)                       P                      Q  
n   0.06662629     Peri.     47.77445     +0.99270155     -0.00956949  
a   6.0261367      Node   312.39455     -0.05135141     +0.86841762  
e   0.0430317      Incl.         9.36833    +0.10911766     +0.49574112  
P   14.8
Return in the future: 2034
 
         
         
 
2018.08.12
2018.08.18
2020.11.10
2020.11.22 - Outburst
 
         
         
         
         
         
2004

Orbital Elements

Epoch 2004 July 14.0 TT = JDT 2453200.5
T 2004 July 10.83371 TT                                                              MPC
q   5.7235812            (2000.0)                          P                      Q
n   0.06726260    Peri.     48.95673        +0.99214562     -0.03564877
a   5.9880713      Node   312.71548        -0.02847769     +0.86898898
e   0.0441695      Incl.         9.39211        +0.12180346    +0.49354567
P   14.7 
Return in the future: 2019
         
         
2007.12.29
2008.01.01
2008.01.25
2008.01.26
2008.02.08
         
         
         
         
         

 

       
 
Since: 01/01/2004
 
       
 
Since: 01/11/2010